sat.trackr.live / text

‹ back to catalog

STARLINK-30349

NORAD 57713 · 2023-129R

PAYLOAD ACTIVE UNKNOWN

§ Identity

Operator
Country
US
Launch date
2023-08-27
Launch site
AFETR
Launch vehicle
Mass (kg)
RCS (m²)

Purposes: comms

External: N2YO · Heavens-Above · Gunter

§ Orbital elements

Epoch: 2026-05-25T01:59:25.816416Z

Period
94.27 min
Inclination
43.0036°
Eccentricity
0.0000856
Mean motion
15.27579610 rev/d
Perigee alt
482.5 km
Apogee alt
483.6 km
Semi-major
6,861.2 km
B*
4.1906e-5
RAAN
46.6655°
Arg perigee
269.6410°
Mean anomaly
90.4343°
Rev number
15,222

§ Raw data

STARLINK-303491 57713U 23129R   26145.08293769  .00000891  00000+0  41906-4 0  99932 57713  43.0036  46.6655 0000856 269.6410  90.4343 15.27579610152228

JSON: /api/v1/satellites/57713 · /tle

For live sub-satellite position, see the globe view (requires WebGL).

§ Visibility from observer

Set your observer location to see the next 7 days of passes ≥ 10°. The values pass through the URL so the page stays shareable.

No JS? Fill the form by hand. The geolocation button needs JavaScript.